Year,Month,Day,Hour,Minute,Value (Times are PST for temperature in C)
2018,02,23,00,00,-2.30
2018,02,23,00,01,-2.30
2018,02,23,00,02,-2.30
2018,02,23,00,03,-2.30
2018,02,23,00,04,-2.40
2018,02,23,00,05,-2.40
2018,02,23,00,06,-2.40
2018,02,23,00,07,-2.40
2018,02,23,00,08,-2.40
2018,02,23,00,09,-2.40
2018,02,23,00,10,-2.40
2018,02,23,00,11,-2.40
2018,02,23,00,12,-2.40
2018,02,23,00,13,-2.30
2018,02,23,00,14,-2.30
2018,02,23,00,15,-2.30
2018,02,23,00,16,-2.30
2018,02,23,00,17,-2.30
2018,02,23,00,18,-2.30
2018,02,23,00,19,-2.30
2018,02,23,00,20,-2.30
2018,02,23,00,21,-2.30
2018,02,23,00,22,-2.30
2018,02,23,00,23,-2.30
2018,02,23,00,24,-2.30
2018,02,23,00,25,-2.30
2018,02,23,00,26,-2.30
2018,02,23,00,27,-2.30
2018,02,23,00,28,-2.30
2018,02,23,00,29,-2.30
2018,02,23,00,30,-2.30
2018,02,23,00,31,-2.40
2018,02,23,00,32,-2.40
2018,02,23,00,33,-2.40
2018,02,23,00,34,-2.40
2018,02,23,00,35,-2.40
2018,02,23,00,36,-2.40
2018,02,23,00,37,-2.40
2018,02,23,00,38,-2.40
2018,02,23,00,39,-2.40
2018,02,23,00,40,-2.40
2018,02,23,00,41,-2.40
2018,02,23,00,42,-2.40
2018,02,23,00,43,-2.40
2018,02,23,00,44,-2.30
2018,02,23,00,45,-2.30
2018,02,23,00,46,-2.30
2018,02,23,00,47,-2.30
2018,02,23,00,48,-2.40
2018,02,23,00,49,-2.40
2018,02,23,00,50,-2.40
2018,02,23,00,51,-2.40
2018,02,23,00,52,-2.40
2018,02,23,00,53,-2.40
2018,02,23,00,54,-2.30
2018,02,23,00,55,-2.30
2018,02,23,00,56,-2.30
2018,02,23,00,57,-2.20
2018,02,23,00,58,-2.20
2018,02,23,00,59,-2.10
2018,02,23,01,00,-2.10
2018,02,23,01,01,-2.00
2018,02,23,01,02,-2.00
2018,02,23,01,03,-2.00
2018,02,23,01,04,-2.10
2018,02,23,01,05,-2.10
2018,02,23,01,06,-2.10
2018,02,23,01,07,-2.10
2018,02,23,01,08,-2.10
2018,02,23,01,09,-2.10
2018,02,23,01,10,-2.10
2018,02,23,01,11,-2.10
2018,02,23,01,12,-2.00
2018,02,23,01,13,-2.00
2018,02,23,01,14,-2.00
2018,02,23,01,15,-2.00
2018,02,23,01,16,-1.90
2018,02,23,01,17,-1.90
2018,02,23,01,18,-1.90
2018,02,23,01,19,-1.90
2018,02,23,01,20,-2.00
2018,02,23,01,21,-2.00
2018,02,23,01,22,-2.00
2018,02,23,01,23,-2.00
2018,02,23,01,24,-1.90
2018,02,23,01,25,-1.90
2018,02,23,01,26,-1.90
2018,02,23,01,27,-1.90
2018,02,23,01,28,-1.90
2018,02,23,01,29,-1.90
2018,02,23,01,30,-1.90
2018,02,23,01,31,-1.90
2018,02,23,01,32,-2.00
2018,02,23,01,33,-2.00
2018,02,23,01,34,-2.00
2018,02,23,01,35,-2.10
2018,02,23,01,36,-2.10
2018,02,23,01,37,-2.10
2018,02,23,01,38,-2.20
2018,02,23,01,39,-2.20
2018,02,23,01,40,-2.20
2018,02,23,01,41,-2.30
2018,02,23,01,42,-2.30
2018,02,23,01,43,-2.30
2018,02,23,01,44,-2.30
2018,02,23,01,45,-2.30
2018,02,23,01,46,-2.30
2018,02,23,01,47,-2.30
2018,02,23,01,48,-2.30
2018,02,23,01,49,-2.30
2018,02,23,01,50,-2.30
2018,02,23,01,51,-2.30
2018,02,23,01,52,-2.30
2018,02,23,01,53,-2.40
2018,02,23,01,54,-2.40
2018,02,23,01,55,-2.40
2018,02,23,01,56,-2.40
2018,02,23,01,57,-2.40
2018,02,23,01,58,-2.40
2018,02,23,01,59,-2.40
2018,02,23,02,00,-2.40
2018,02,23,02,01,-2.40
2018,02,23,02,02,-2.40
2018,02,23,02,03,-2.40
2018,02,23,02,04,-2.40
2018,02,23,02,05,-2.30
2018,02,23,02,06,-2.30
2018,02,23,02,07,-2.30
2018,02,23,02,08,-2.30
2018,02,23,02,09,-2.30
2018,02,23,02,10,-2.30
2018,02,23,02,11,-2.30
2018,02,23,02,12,-2.30
2018,02,23,02,13,-2.30
2018,02,23,02,14,-2.30
2018,02,23,02,15,-2.30
2018,02,23,02,16,-2.30
2018,02,23,02,17,-2.40
2018,02,23,02,18,-2.40
2018,02,23,02,19,-2.40
2018,02,23,02,20,-2.40
2018,02,23,02,21,-2.40
2018,02,23,02,22,-2.40
2018,02,23,02,23,-2.40
2018,02,23,02,24,-2.40
2018,02,23,02,25,-2.40
2018,02,23,02,26,-2.40
2018,02,23,02,27,-2.40
2018,02,23,02,28,-2.30
2018,02,23,02,29,-2.30
2018,02,23,02,30,-2.30
2018,02,23,02,31,-2.30
2018,02,23,02,32,-2.30
2018,02,23,02,33,-2.30
2018,02,23,02,34,-2.30
2018,02,23,02,35,-2.30
2018,02,23,02,36,-2.30
2018,02,23,02,37,-2.30
2018,02,23,02,38,-2.30
2018,02,23,02,39,-2.30
2018,02,23,02,40,-2.30
2018,02,23,02,41,-2.30
2018,02,23,02,42,-2.30
2018,02,23,02,43,-2.30
2018,02,23,02,44,-2.30
2018,02,23,02,45,-2.20
2018,02,23,02,46,-2.20
2018,02,23,02,47,-2.20
2018,02,23,02,48,-2.20
2018,02,23,02,49,-2.20
2018,02,23,02,50,-2.20
2018,02,23,02,51,-2.20
2018,02,23,02,52,-2.20
2018,02,23,02,53,-2.20
2018,02,23,02,54,-2.20
2018,02,23,02,55,-2.20
2018,02,23,02,56,-2.20
2018,02,23,02,57,-2.10
2018,02,23,02,58,-2.10
2018,02,23,02,59,-2.00
2018,02,23,03,00,-1.90
2018,02,23,03,01,-1.90
2018,02,23,03,02,-1.80
2018,02,23,03,03,-1.80
2018,02,23,03,04,-1.80
2018,02,23,03,05,-1.70
2018,02,23,03,06,-1.70
2018,02,23,03,07,-1.70
2018,02,23,03,08,-1.70
2018,02,23,03,09,-1.60
2018,02,23,03,10,-1.70
2018,02,23,03,11,-1.70
2018,02,23,03,12,-1.70
2018,02,23,03,13,-1.70
2018,02,23,03,14,-1.70
2018,02,23,03,15,-1.70
2018,02,23,03,16,-1.80
2018,02,23,03,17,-1.80
2018,02,23,03,18,-1.80
2018,02,23,03,19,-1.80
2018,02,23,03,20,-1.80
2018,02,23,03,21,-1.80
2018,02,23,03,22,-1.80
2018,02,23,03,23,-1.80
2018,02,23,03,24,-1.80
2018,02,23,03,25,-1.80
2018,02,23,03,26,-1.80
2018,02,23,03,27,-1.80
2018,02,23,03,28,-1.80
2018,02,23,03,29,-1.70
2018,02,23,03,30,-1.70
2018,02,23,03,31,-1.70
2018,02,23,03,32,-1.70
2018,02,23,03,33,-1.70
2018,02,23,03,34,-1.70
2018,02,23,03,35,-1.70
2018,02,23,03,36,-1.70
2018,02,23,03,37,-1.70
2018,02,23,03,38,-1.70
2018,02,23,03,39,-1.70
2018,02,23,03,40,-1.70
2018,02,23,03,41,-1.70
2018,02,23,03,42,-1.70
2018,02,23,03,43,-1.70
2018,02,23,03,44,-1.70
2018,02,23,03,45,-1.70
2018,02,23,03,46,-1.70
2018,02,23,03,47,-1.70
2018,02,23,03,48,-1.70
2018,02,23,03,49,-1.70
2018,02,23,03,50,-1.70
2018,02,23,03,51,-1.70
2018,02,23,03,52,-1.70
2018,02,23,03,53,-1.70
2018,02,23,03,54,-1.70
2018,02,23,03,55,-1.70
2018,02,23,03,56,-1.70
2018,02,23,03,57,-1.70
2018,02,23,03,58,-1.70
2018,02,23,03,59,-1.70
2018,02,23,04,00,-1.70
2018,02,23,04,01,-1.70
2018,02,23,04,02,-1.70
2018,02,23,04,03,-1.70
2018,02,23,04,04,-1.70
2018,02,23,04,05,-1.70
2018,02,23,04,06,-1.70
2018,02,23,04,07,-1.70
2018,02,23,04,08,-1.70
2018,02,23,04,09,-1.70
2018,02,23,04,10,-1.70
2018,02,23,04,11,-1.70
2018,02,23,04,12,-1.70
2018,02,23,04,13,-1.70
2018,02,23,04,14,-1.70
2018,02,23,04,15,-1.70
2018,02,23,04,16,-1.70
2018,02,23,04,17,-1.70
2018,02,23,04,18,-1.70
2018,02,23,04,19,-1.70
2018,02,23,04,20,-1.70
2018,02,23,04,21,-1.70
2018,02,23,04,22,-1.70
2018,02,23,04,23,-1.60
2018,02,23,04,24,-1.60
2018,02,23,04,25,-1.60
2018,02,23,04,26,-1.60
2018,02,23,04,27,-1.60
2018,02,23,04,28,-1.60
2018,02,23,04,29,-1.60
2018,02,23,04,30,-1.60
2018,02,23,04,31,-1.60
2018,02,23,04,32,-1.70
2018,02,23,04,33,-1.70
2018,02,23,04,34,-1.60
2018,02,23,04,35,-1.60
2018,02,23,04,36,-1.60
2018,02,23,04,37,-1.60
2018,02,23,04,38,-1.50
2018,02,23,04,39,-1.50
2018,02,23,04,40,-1.50
2018,02,23,04,41,-1.40
2018,02,23,04,42,-1.40
2018,02,23,04,43,-1.40
2018,02,23,04,44,-1.40
2018,02,23,04,45,-1.40
2018,02,23,04,46,-1.40
2018,02,23,04,47,-1.40
2018,02,23,04,48,-1.30
2018,02,23,04,49,-1.30
2018,02,23,04,50,-1.30
2018,02,23,04,51,-1.20
2018,02,23,04,52,-1.20
2018,02,23,04,53,-1.20
2018,02,23,04,54,-1.20
2018,02,23,04,55,-1.20
2018,02,23,04,56,-1.20
2018,02,23,04,57,-1.20
2018,02,23,04,58,-1.20
2018,02,23,04,59,-1.20
2018,02,23,05,00,-1.20
2018,02,23,05,01,-1.20
2018,02,23,05,02,-1.20
2018,02,23,05,03,-1.20
2018,02,23,05,04,-1.20
2018,02,23,08,11,-0.10
2018,02,23,08,12,-0.10
2018,02,23,08,13,-0.10
2018,02,23,08,14,0.00
2018,02,23,08,15,0.10
2018,02,23,08,16,0.10
2018,02,23,08,17,0.10
2018,02,23,08,18,0.10
2018,02,23,08,19,0.10
2018,02,23,08,20,0.10
2018,02,23,08,21,0.10
2018,02,23,08,22,0.10
2018,02,23,08,23,0.10
2018,02,23,08,24,0.10
2018,02,23,08,25,0.10
2018,02,23,08,26,0.10
2018,02,23,08,27,0.10
2018,02,23,08,28,0.10
2018,02,23,08,29,0.10
2018,02,23,08,30,0.10
2018,02,23,08,31,0.10
2018,02,23,08,32,0.10
2018,02,23,08,33,0.20
2018,02,23,08,34,0.20
2018,02,23,08,35,0.20
2018,02,23,08,36,0.20
2018,02,23,08,37,0.20
2018,02,23,08,38,0.20
2018,02,23,08,39,0.20
2018,02,23,08,40,0.20
2018,02,23,08,41,0.20
2018,02,23,08,42,0.20
2018,02,23,08,43,0.20
2018,02,23,08,44,0.20
2018,02,23,08,45,0.20
2018,02,23,08,46,0.20
2018,02,23,08,47,0.20
2018,02,23,08,48,0.20
2018,02,23,08,49,0.20
2018,02,23,08,50,0.20
2018,02,23,08,51,0.20
2018,02,23,08,52,0.20
2018,02,23,08,53,0.30
2018,02,23,08,54,0.30
2018,02,23,08,55,0.30
2018,02,23,08,56,0.30
2018,02,23,08,57,0.30
2018,02,23,08,58,0.30
2018,02,23,08,59,0.30
2018,02,23,09,00,0.30
2018,02,23,09,01,0.40
2018,02,23,09,02,0.40
2018,02,23,09,03,0.40
2018,02,23,09,04,0.40
2018,02,23,09,05,0.40
2018,02,23,09,06,0.40
2018,02,23,09,07,0.40
2018,02,23,09,08,0.40
2018,02,23,09,09,0.40
2018,02,23,09,10,0.40
2018,02,23,09,11,0.40
2018,02,23,09,12,0.50
2018,02,23,09,13,0.50
2018,02,23,09,14,0.50
2018,02,23,09,15,0.50
2018,02,23,09,16,0.60
2018,02,23,09,17,0.60
2018,02,23,09,18,0.60
2018,02,23,09,19,0.60
2018,02,23,09,20,0.60
2018,02,23,09,21,0.70
2018,02,23,09,22,0.70
2018,02,23,09,23,0.70
2018,02,23,09,24,0.80
2018,02,23,09,25,0.80
2018,02,23,09,26,0.80
2018,02,23,09,27,0.80
2018,02,23,09,28,0.80
2018,02,23,09,29,0.90
2018,02,23,09,30,0.90
2018,02,23,09,31,1.00
2018,02,23,09,32,1.00
2018,02,23,09,33,1.00
2018,02,23,09,34,1.10
2018,02,23,09,35,1.10
2018,02,23,09,36,1.10
2018,02,23,09,37,1.20
2018,02,23,09,38,1.20
2018,02,23,09,39,1.20
2018,02,23,09,40,1.30
2018,02,23,09,41,1.30
2018,02,23,09,42,1.30
2018,02,23,09,43,1.30
2018,02,23,09,44,1.30
2018,02,23,09,45,1.30
2018,02,23,09,46,1.40
2018,02,23,09,47,1.40
2018,02,23,09,48,1.40
2018,02,23,09,49,1.40
2018,02,23,09,50,1.40
2018,02,23,09,51,1.40
2018,02,23,09,52,1.40
2018,02,23,09,53,1.40
2018,02,23,09,54,1.40
2018,02,23,09,55,1.40
2018,02,23,09,56,1.50
2018,02,23,09,57,1.50
2018,02,23,09,58,1.50
2018,02,23,09,59,1.50
2018,02,23,10,00,1.50
2018,02,23,10,01,1.50
2018,02,23,10,02,1.50
2018,02,23,10,03,1.50
2018,02,23,10,04,1.50
2018,02,23,10,05,1.60
2018,02,23,10,06,1.60
2018,02,23,10,07,1.60
2018,02,23,10,08,1.60
2018,02,23,10,09,1.60
2018,02,23,10,10,1.60
2018,02,23,10,11,1.60
2018,02,23,10,12,1.70
2018,02,23,10,13,1.70
2018,02,23,10,14,1.80
2018,02,23,10,15,1.80
2018,02,23,10,16,1.80
2018,02,23,10,17,1.90
2018,02,23,10,18,2.00
2018,02,23,10,19,2.10
2018,02,23,10,20,2.10
2018,02,23,10,21,2.20
2018,02,23,10,22,2.20
2018,02,23,10,23,2.20
2018,02,23,10,24,2.20
2018,02,23,10,25,2.20
2018,02,23,10,26,2.30
2018,02,23,10,27,2.30
2018,02,23,10,28,2.30
2018,02,23,10,29,2.40
2018,02,23,10,30,2.40
2018,02,23,10,31,2.40
2018,02,23,10,32,2.50
2018,02,23,10,33,2.50
2018,02,23,10,34,2.60
2018,02,23,10,35,2.60
2018,02,23,10,36,2.60
2018,02,23,10,37,2.70
2018,02,23,10,38,2.70
2018,02,23,10,39,2.70
2018,02,23,10,40,2.70
2018,02,23,10,41,2.70
2018,02,23,10,42,2.70
2018,02,23,10,43,2.70
2018,02,23,10,44,2.70
2018,02,23,10,45,2.70
2018,02,23,10,46,2.70
2018,02,23,10,47,2.70
2018,02,23,10,48,2.70
2018,02,23,10,49,2.70
2018,02,23,10,50,2.70
2018,02,23,10,51,2.70
2018,02,23,10,52,2.70
2018,02,23,10,53,2.70
2018,02,23,10,54,2.70
2018,02,23,10,55,2.70
2018,02,23,10,56,2.70
2018,02,23,10,57,2.70
2018,02,23,10,58,2.70
2018,02,23,10,59,2.70
2018,02,23,11,00,2.70
2018,02,23,11,01,2.70
2018,02,23,11,02,2.70
2018,02,23,11,03,2.70
2018,02,23,11,04,2.70
2018,02,23,11,05,2.60
2018,02,23,11,06,2.60
2018,02,23,11,07,2.50
2018,02,23,11,08,2.50
2018,02,23,11,09,2.40
2018,02,23,11,10,2.40
2018,02,23,11,11,2.30
2018,02,23,11,12,2.30
2018,02,23,11,13,2.20
2018,02,23,11,14,2.20
2018,02,23,11,15,2.20
2018,02,23,11,16,2.20
2018,02,23,11,17,2.20
2018,02,23,11,18,2.10
2018,02,23,11,19,2.10
2018,02,23,11,20,2.10
2018,02,23,11,21,2.10
2018,02,23,11,22,2.00
2018,02,23,11,23,2.00
2018,02,23,11,24,2.00
2018,02,23,11,25,2.00
2018,02,23,11,26,2.00
2018,02,23,11,27,2.00
2018,02,23,11,28,2.00
2018,02,23,11,29,2.00
2018,02,23,11,30,2.00
2018,02,23,11,31,2.00
2018,02,23,11,32,2.00
2018,02,23,11,33,2.00
2018,02,23,11,34,2.00
2018,02,23,11,35,2.10
2018,02,23,11,36,2.10
2018,02,23,11,37,2.10
2018,02,23,11,38,2.10
2018,02,23,11,39,2.10
2018,02,23,11,40,2.10
2018,02,23,11,41,2.10
2018,02,23,11,42,2.10
2018,02,23,11,43,2.00
2018,02,23,11,44,2.00
2018,02,23,11,45,1.90
2018,02,23,11,46,1.80
2018,02,23,11,47,1.70
2018,02,23,11,48,1.70
2018,02,23,11,49,1.60
2018,02,23,11,50,1.60
2018,02,23,11,51,1.50
2018,02,23,11,52,1.40
2018,02,23,11,53,1.40
2018,02,23,11,54,1.30
2018,02,23,11,55,1.30
2018,02,23,11,56,1.30
2018,02,23,11,57,1.30
2018,02,23,11,58,1.20
2018,02,23,11,59,1.20
2018,02,23,12,00,1.20
2018,02,23,12,01,1.10
2018,02,23,12,02,1.10
2018,02,23,12,03,1.00
2018,02,23,12,04,0.90
2018,02,23,12,05,0.90
2018,02,23,12,06,0.80
2018,02,23,12,07,0.80
2018,02,23,12,08,0.80
2018,02,23,12,09,0.80
2018,02,23,12,10,0.80
2018,02,23,12,11,0.80
2018,02,23,12,12,0.80
2018,02,23,12,13,0.70
2018,02,23,12,14,0.70
2018,02,23,12,15,0.70
2018,02,23,12,16,0.70
2018,02,23,12,17,0.70
2018,02,23,12,18,0.70
2018,02,23,12,19,0.70
2018,02,23,12,20,0.70
2018,02,23,12,21,0.80
2018,02,23,12,22,0.80
2018,02,23,12,23,0.80
2018,02,23,12,24,0.80
2018,02,23,12,25,0.80
2018,02,23,12,26,0.80
2018,02,23,12,27,0.80
2018,02,23,12,28,0.80
2018,02,23,12,29,0.80
2018,02,23,12,30,0.80
2018,02,23,12,31,0.80
2018,02,23,12,32,0.80
2018,02,23,12,33,0.80
2018,02,23,12,34,0.80
2018,02,23,12,35,0.90
2018,02,23,12,36,0.90
2018,02,23,12,37,0.90
2018,02,23,12,38,0.90
2018,02,23,12,39,0.80
2018,02,23,12,40,0.80
2018,02,23,12,41,0.80
2018,02,23,12,42,0.80
2018,02,23,12,43,0.70
2018,02,23,12,44,0.70
2018,02,23,12,45,0.70
2018,02,23,12,46,0.60
2018,02,23,12,47,0.60
2018,02,23,12,48,0.60
2018,02,23,12,49,0.60
2018,02,23,12,50,0.60
2018,02,23,12,51,0.60
2018,02,23,12,52,0.50
2018,02,23,12,53,0.50
2018,02,23,12,54,0.50
2018,02,23,12,55,0.50
2018,02,23,12,56,0.50
2018,02,23,12,57,0.50
2018,02,23,12,58,0.60
2018,02,23,12,59,0.60
2018,02,23,13,00,0.60
2018,02,23,13,01,0.60
2018,02,23,13,02,0.60
2018,02,23,13,03,0.60
2018,02,23,13,04,0.60
2018,02,23,13,05,0.60
2018,02,23,13,06,0.60
2018,02,23,13,07,0.60
2018,02,23,13,08,0.50
2018,02,23,13,09,0.50
2018,02,23,13,10,0.60
2018,02,23,13,11,0.60
2018,02,23,13,12,0.60
2018,02,23,13,13,0.60
2018,02,23,13,14,0.60
2018,02,23,13,15,0.60
2018,02,23,13,16,0.60
2018,02,23,13,17,0.60
2018,02,23,13,18,0.60
2018,02,23,13,19,0.60
2018,02,23,13,20,0.60
2018,02,23,13,21,0.60
2018,02,23,13,22,0.60
2018,02,23,13,23,0.60
2018,02,23,13,24,0.60
2018,02,23,13,25,0.60
2018,02,23,13,26,0.60
2018,02,23,13,27,0.60
2018,02,23,13,28,0.70
2018,02,23,13,29,0.70
2018,02,23,13,30,0.70
2018,02,23,13,31,0.70
2018,02,23,13,32,0.70
2018,02,23,13,33,0.60
2018,02,23,13,34,0.60
2018,02,23,13,35,0.60
2018,02,23,13,36,0.50
2018,02,23,13,37,0.50
2018,02,23,13,38,0.50
2018,02,23,13,39,0.50
2018,02,23,13,40,0.50
2018,02,23,13,41,0.50
2018,02,23,13,42,0.50
2018,02,23,13,43,0.50
2018,02,23,13,44,0.50
2018,02,23,13,45,0.50
2018,02,23,13,46,0.50
2018,02,23,13,47,0.60
2018,02,23,13,48,0.60
2018,02,23,13,49,0.60
2018,02,23,13,50,0.60
2018,02,23,13,51,0.60
2018,02,23,13,52,0.60
2018,02,23,13,53,0.60
2018,02,23,13,54,0.60
2018,02,23,13,55,0.60
2018,02,23,13,56,0.60
2018,02,23,13,57,0.60
2018,02,23,13,58,0.60
2018,02,23,13,59,0.60
2018,02,23,14,00,0.60
2018,02,23,14,01,0.70
2018,02,23,14,02,0.70
2018,02,23,14,03,0.70
2018,02,23,14,04,0.70
2018,02,23,14,05,0.70
2018,02,23,14,06,0.70
2018,02,23,14,07,0.70
2018,02,23,14,08,0.70
2018,02,23,14,09,0.70
2018,02,23,14,10,0.70
2018,02,23,14,11,0.70
2018,02,23,14,12,0.70
2018,02,23,14,13,0.70
2018,02,23,14,14,0.70
2018,02,23,14,15,0.70
2018,02,23,14,16,0.70
2018,02,23,14,17,0.70
2018,02,23,14,18,0.70
2018,02,23,14,19,0.80
2018,02,23,14,20,0.80
2018,02,23,14,21,0.80
2018,02,23,14,22,0.80
2018,02,23,14,23,0.80
2018,02,23,14,24,0.80
2018,02,23,14,25,0.80
2018,02,23,14,26,0.80
2018,02,23,14,27,0.80
2018,02,23,14,28,0.80
2018,02,23,14,29,0.80
2018,02,23,14,30,0.80
2018,02,23,14,31,0.80
2018,02,23,14,32,0.80
2018,02,23,14,33,0.80
2018,02,23,14,34,0.80
2018,02,23,14,35,0.80
2018,02,23,14,36,0.80
2018,02,23,14,37,0.80
2018,02,23,14,38,0.80
2018,02,23,14,39,0.80
2018,02,23,14,40,0.80
2018,02,23,14,41,0.80
2018,02,23,14,42,0.80
2018,02,23,14,43,0.80
2018,02,23,14,44,0.90
2018,02,23,14,45,0.90
2018,02,23,14,46,0.90
2018,02,23,14,47,1.00
2018,02,23,14,48,1.00
2018,02,23,14,49,1.00
2018,02,23,14,50,1.10
2018,02,23,14,51,1.10
2018,02,23,14,52,1.00
2018,02,23,14,53,1.00
2018,02,23,14,54,1.10
2018,02,23,14,55,1.10
2018,02,23,14,56,1.10
2018,02,23,14,57,1.20
2018,02,23,14,58,1.20
2018,02,23,14,59,1.10
2018,02,23,15,00,1.10
2018,02,23,15,01,1.20
2018,02,23,15,02,1.20
2018,02,23,15,03,1.20
2018,02,23,15,04,1.20
2018,02,23,15,05,1.20
2018,02,23,15,06,1.20
2018,02,23,15,07,1.30
2018,02,23,15,08,1.30
2018,02,23,15,09,1.30
2018,02,23,15,10,1.30
2018,02,23,15,11,1.30
2018,02,23,15,12,1.30
2018,02,23,15,13,1.30
2018,02,23,15,14,1.40
2018,02,23,15,15,1.40
2018,02,23,15,16,1.40
2018,02,23,15,17,1.40
2018,02,23,15,18,1.40
2018,02,23,15,19,1.40
2018,02,23,15,20,1.40
2018,02,23,15,21,1.40
2018,02,23,15,22,1.30
2018,02,23,15,23,1.30
2018,02,23,15,24,1.30
2018,02,23,15,25,1.30
2018,02,23,15,26,1.30
2018,02,23,15,27,1.20
2018,02,23,15,28,1.20
2018,02,23,15,29,1.20
2018,02,23,15,30,1.20
2018,02,23,15,31,1.20
2018,02,23,15,32,1.20
2018,02,23,15,33,1.20
2018,02,23,15,34,1.20
2018,02,23,15,35,1.20
2018,02,23,15,36,1.20
2018,02,23,15,37,1.20
2018,02,23,15,38,1.10
2018,02,23,15,39,1.10
2018,02,23,15,40,1.10
2018,02,23,15,41,1.00
2018,02,23,15,42,1.00
2018,02,23,15,43,1.00
2018,02,23,15,44,0.90
2018,02,23,15,45,0.90
2018,02,23,15,46,0.90
2018,02,23,15,47,0.90
2018,02,23,15,48,0.90
2018,02,23,15,49,0.90
2018,02,23,15,50,0.90
2018,02,23,15,51,0.90
2018,02,23,15,52,0.90
2018,02,23,15,53,0.90
2018,02,23,15,54,0.90
2018,02,23,15,55,0.80
2018,02,23,15,56,0.80
2018,02,23,15,57,0.80
2018,02,23,15,58,0.80
2018,02,23,15,59,0.80
2018,02,23,16,00,0.80
2018,02,23,16,01,0.80
2018,02,23,16,02,0.80
2018,02,23,16,03,0.80
2018,02,23,16,04,0.80
2018,02,23,16,05,0.80
2018,02,23,16,06,0.80
2018,02,23,16,07,0.80
2018,02,23,16,08,0.80
2018,02,23,16,09,0.80
2018,02,23,16,10,0.80
2018,02,23,16,11,0.80
2018,02,23,16,12,0.80
2018,02,23,16,13,0.80
2018,02,23,16,14,0.80
2018,02,23,16,15,0.80
2018,02,23,16,16,0.80
2018,02,23,16,17,0.80
2018,02,23,16,18,0.80
2018,02,23,16,19,0.80
2018,02,23,16,20,0.80
2018,02,23,16,21,0.80
2018,02,23,16,22,0.80
2018,02,23,16,23,0.80
2018,02,23,16,24,0.80
2018,02,23,16,25,0.80
2018,02,23,16,26,0.80
2018,02,23,16,27,0.80
2018,02,23,16,28,0.80
2018,02,23,16,29,0.80
2018,02,23,16,30,0.80
2018,02,23,16,31,0.80
2018,02,23,16,32,0.80
2018,02,23,16,33,0.80
2018,02,23,16,34,0.80
2018,02,23,16,35,0.80
2018,02,23,16,36,0.80
2018,02,23,16,37,0.80
2018,02,23,16,38,0.80
2018,02,23,16,39,0.80
2018,02,23,16,40,0.80
2018,02,23,16,41,0.80
2018,02,23,16,42,0.80
2018,02,23,16,43,0.80
2018,02,23,16,44,0.80
2018,02,23,16,45,0.80
2018,02,23,16,46,0.80
2018,02,23,16,47,0.80
2018,02,23,16,48,0.80
2018,02,23,16,49,0.80
2018,02,23,16,50,0.80
2018,02,23,16,51,0.80
2018,02,23,16,52,0.80
2018,02,23,16,53,0.80
2018,02,23,16,54,0.80
2018,02,23,16,55,0.80
2018,02,23,16,56,0.80
2018,02,23,16,57,0.80
2018,02,23,16,58,0.80
2018,02,23,16,59,0.80
2018,02,23,17,00,0.80
2018,02,23,17,01,0.80
2018,02,23,17,02,0.80
2018,02,23,17,03,0.80
2018,02,23,17,04,0.80
2018,02,23,17,05,0.80
2018,02,23,17,06,0.80
2018,02,23,17,07,0.80
2018,02,23,17,08,0.80
2018,02,23,17,09,0.80
2018,02,23,17,10,0.80
2018,02,23,17,11,0.80
2018,02,23,17,12,0.80
2018,02,23,17,13,0.80
2018,02,23,17,14,0.80
2018,02,23,17,15,0.80
2018,02,23,17,16,0.80
2018,02,23,17,17,0.80
2018,02,23,17,18,0.80
2018,02,23,17,19,0.80
2018,02,23,17,20,0.80
2018,02,23,17,21,0.80
2018,02,23,17,22,0.80
2018,02,23,17,23,0.80
2018,02,23,17,24,0.80
2018,02,23,17,25,0.80
2018,02,23,17,26,0.80
2018,02,23,17,27,0.80
2018,02,23,17,28,0.80
2018,02,23,17,29,0.80
2018,02,23,17,30,0.80
2018,02,23,17,31,0.80
2018,02,23,17,32,0.80
2018,02,23,17,33,0.80
2018,02,23,17,34,0.80
2018,02,23,17,35,0.80
2018,02,23,17,36,0.80
2018,02,23,17,37,0.80
2018,02,23,17,38,0.80
2018,02,23,17,39,0.80
2018,02,23,17,40,0.80
2018,02,23,17,41,0.80
2018,02,23,17,42,0.80
2018,02,23,17,43,0.80
2018,02,23,17,44,0.80
2018,02,23,17,45,0.80
2018,02,23,17,46,0.80
2018,02,23,17,47,0.80
2018,02,23,17,48,0.80
2018,02,23,17,49,0.80
2018,02,23,17,50,0.80
2018,02,23,17,51,0.80
2018,02,23,17,52,0.80
2018,02,23,17,53,0.80
2018,02,23,17,54,0.80
2018,02,23,17,55,0.80
2018,02,23,17,56,0.80
2018,02,23,17,57,0.80
2018,02,23,17,58,0.80
2018,02,23,17,59,0.80
2018,02,23,18,00,0.80
2018,02,23,18,01,0.80
2018,02,23,18,02,0.80
2018,02,23,18,03,0.80
2018,02,23,18,04,0.80
2018,02,23,18,05,0.80
2018,02,23,18,06,0.80
2018,02,23,18,07,0.80
2018,02,23,18,08,0.80
2018,02,23,18,09,0.80
2018,02,23,18,10,0.80
2018,02,23,18,11,0.80
2018,02,23,18,12,0.80
2018,02,23,18,13,0.80
2018,02,23,18,14,0.80
2018,02,23,18,15,0.80
2018,02,23,18,16,0.80
2018,02,23,18,17,0.80
2018,02,23,18,18,0.80
2018,02,23,18,19,0.80
2018,02,23,18,20,0.80
2018,02,23,18,21,0.80
2018,02,23,18,22,0.80
2018,02,23,18,23,0.80
2018,02,23,18,24,0.80
2018,02,23,18,25,0.80
2018,02,23,18,26,0.80
2018,02,23,18,27,0.80
2018,02,23,18,28,0.80
2018,02,23,18,29,0.80
2018,02,23,18,30,0.80
2018,02,23,18,31,0.80
2018,02,23,18,32,0.80
2018,02,23,18,33,0.80
2018,02,23,18,34,0.80
2018,02,23,18,35,0.80
2018,02,23,18,36,0.80
2018,02,23,18,37,0.80
2018,02,23,18,38,0.80
2018,02,23,18,39,0.80
2018,02,23,18,40,0.80
2018,02,23,18,41,0.70
2018,02,23,18,42,0.70
2018,02,23,18,43,0.70
2018,02,23,18,44,0.70
2018,02,23,18,45,0.70
2018,02,23,18,46,0.70
2018,02,23,18,47,0.70
2018,02,23,18,48,0.70
2018,02,23,18,49,0.70
2018,02,23,18,50,0.70
2018,02,23,18,51,0.70
2018,02,23,18,52,0.70
2018,02,23,18,53,0.70
2018,02,23,18,54,0.70
2018,02,23,18,55,0.70
2018,02,23,18,56,0.70
2018,02,23,18,57,0.70
2018,02,23,18,58,0.70
2018,02,23,18,59,0.70
2018,02,23,19,00,0.70
2018,02,23,19,01,0.70
2018,02,23,19,02,0.70
2018,02,23,19,03,0.70
2018,02,23,19,04,0.70
2018,02,23,19,05,0.70
2018,02,23,19,06,0.70
2018,02,23,19,07,0.70
2018,02,23,19,08,0.70
2018,02,23,19,09,0.70
2018,02,23,19,10,0.70
2018,02,23,19,11,0.70
2018,02,23,19,12,0.70
2018,02,23,19,13,0.70
2018,02,23,19,14,0.70
2018,02,23,19,15,0.70
2018,02,23,19,16,0.70
2018,02,23,19,17,0.70
2018,02,23,19,18,0.70
2018,02,23,19,19,0.70
2018,02,23,19,20,0.80
2018,02,23,19,21,0.80
2018,02,23,19,22,0.80
2018,02,23,19,23,0.80
2018,02,23,19,24,0.80
2018,02,23,19,25,0.70
2018,02,23,19,26,0.70
2018,02,23,19,27,0.70
2018,02,23,19,28,0.80
2018,02,23,19,29,0.80
2018,02,23,19,30,0.80
2018,02,23,19,31,0.80
2018,02,23,19,32,0.80
2018,02,23,19,33,0.80
2018,02,23,19,34,0.80
2018,02,23,19,35,0.80
2018,02,23,19,36,0.80
2018,02,23,19,37,0.80
2018,02,23,19,38,0.80
2018,02,23,19,39,0.80
2018,02,23,19,40,0.70
2018,02,23,19,41,0.70
2018,02,23,19,42,0.70
2018,02,23,19,43,0.70
2018,02,23,19,44,0.70
2018,02,23,19,45,0.70
2018,02,23,19,46,0.70
2018,02,23,19,47,0.70
2018,02,23,19,48,0.70
2018,02,23,19,49,0.70
2018,02,23,19,50,0.70
2018,02,23,19,51,0.70
2018,02,23,19,52,0.60
2018,02,23,19,53,0.60
2018,02,23,19,54,0.60
2018,02,23,19,55,0.60
2018,02,23,19,56,0.60
2018,02,23,19,57,0.60
2018,02,23,19,58,0.60
2018,02,23,19,59,0.60
2018,02,23,20,00,0.60
2018,02,23,20,01,0.60
2018,02,23,20,02,0.60
2018,02,23,20,03,0.60
2018,02,23,20,04,0.60
2018,02,23,20,05,0.60
2018,02,23,20,06,0.60
2018,02,23,20,07,0.60
2018,02,23,20,08,0.60
2018,02,23,20,09,0.60
2018,02,23,20,10,0.60
2018,02,23,20,11,0.60
2018,02,23,20,12,0.60
2018,02,23,20,13,0.60
2018,02,23,20,14,0.60
2018,02,23,20,15,0.50
2018,02,23,20,16,0.50
2018,02,23,20,17,0.50
2018,02,23,20,18,0.50
2018,02,23,20,19,0.50
2018,02,23,20,20,0.50
2018,02,23,20,21,0.50
2018,02,23,20,22,0.50
2018,02,23,20,23,0.50
2018,02,23,20,24,0.50
2018,02,23,20,25,0.50
2018,02,23,20,26,0.50
2018,02,23,20,27,0.50
2018,02,23,20,28,0.50
2018,02,23,20,29,0.50
2018,02,23,20,30,0.50
2018,02,23,20,31,0.50
2018,02,23,20,32,0.50
2018,02,23,20,33,0.50
2018,02,23,20,34,0.50
2018,02,23,20,35,0.50
2018,02,23,20,36,0.50
2018,02,23,20,37,0.60
2018,02,23,20,38,0.60
2018,02,23,20,39,0.60
2018,02,23,20,40,0.60
2018,02,23,20,41,0.60
2018,02,23,20,42,0.60
2018,02,23,20,43,0.60
2018,02,23,20,44,0.60
2018,02,23,20,45,0.60
2018,02,23,20,46,0.60
2018,02,23,20,47,0.70
2018,02,23,20,48,0.70
2018,02,23,20,49,0.80
2018,02,23,20,50,0.80
2018,02,23,20,51,0.80
2018,02,23,20,52,0.80
2018,02,23,20,53,0.80
2018,02,23,20,54,0.80
2018,02,23,20,55,0.80
2018,02,23,20,56,0.80
2018,02,23,20,57,0.80
2018,02,23,20,58,1.00